Other Public Products
Issued by NWS Grand Forks, ND

Home | Current Version | Previous Version | Graphics & Text | Print | Product List | Glossary On
Versions: 1 2 3 4 5 6 7 8 9 10 11 12 13 14 15 16 17 18 19 20 21 22 23 24 25 26 27 28 29 30 31 32 33 34 35 36 37 38 39 40 41 42 43 44 45 46 47 48 49 50
000
FPUS83 KFGF 180210
OPUFGF
PRAIRIE TO PINES WEATHER ROUNDUP
NATIONAL WEATHER SERVICE EASTERN NORTH DAKOTA/GRAND FORKS ND
900 PM CDT WED SEP 17 2014

 **SATELLITE DATA USED TO AUGMENT SKY COVER AT AUTOMATED STATIONS**
 *****  WEATHER ACROSS EASTERN NORTH DAKOTA  *****

CITY           SKY/WX    TMP DP  RH WIND       PRES   REMARKS
GRAND FORKS    CLEAR     53  45  74 NE9       30.04R
GRAND FORKS AF CLEAR     52  46  78 E9        30.05R
GRAND CITY NWS   N/A     52 N/A N/A NE7         N/A
BUXTON         NOT AVBL
DEVILS LAKE    CLEAR     48  39  71 E7        30.03R
FARGO          CLEAR     59  50  72 N8        30.00R
WAHPETON ARPT  CLEAR     59  46  63 N6        29.99S
$$

 *****  WEATHER ACROSS CENTRAL AND WESTERN NORTH DAKOTA  *****

CITY           SKY/WX    TMP DP  RH WIND       PRES   REMARKS
JAMESTOWN      CLEAR     54  50  86 E6        30.01R
BISMARCK       CLEAR     56  48  74 E6        29.97R
MINOT          CLEAR     53  47  79 E8        29.98S
MINOT AFB      CLEAR     55  49  82 E10       29.98R
GARRISON         N/A     59  51  75 E12       29.97R
WILLISTON      CLEAR     62  43  49 E7        29.92R
DICKINSON      CLEAR     58  49  72 SE12      29.94S
HETTINGER      CLEAR     59  51  75 E10       29.97R
$$

 *****  OTHER OBSERVATIONS NORTHEAST NORTH DAKOTA  *****

CITY           SKY/WX    TMP DP  RH WIND       PRES   REMARKS
WALHALLA       FAIR      46  43  87 NE7       30.08R
LANGDON        FAIR      45  39  81 E6        30.06R
CAVALIER       FAIR      48  41  76 NE7       30.07S
GRAFTON        FAIR      48  41  76 E10       30.06R
CANDO          FAIR      48  41  76 E9        30.05S
FORT TOTTEN      N/A     51  45  80 SE2       29.95S
ROLLA          FAIR      46  41  81 E9        30.06R
RUGBY          FAIR      50  46  87 E10       30.02S
 ***** THE ABOVE OBSERVATIONS ARE NON NWS ARE NOT QUALITY
        CONTROLLED AND MAY MIS-REPORT RAIN FOR SNOW...
$$

 *****  OTHER OBSERVATIONS SOUTHEAST NORTH DAKOTA *****

CITY           SKY/WX    TMP DP  RH WIND       PRES   REMARKS
COOPERSTOWN    NOT AVBL
VALLEY CITY    FAIR      55  54  94 NE6       30.02R
OAKES            N/A     55  50  82 NE10      30.00R
GWINNER        CLEAR     55  48  76 N6        30.01R
BUFFALO        NOT AVBL
WYNDMERE       NOT AVBL
 ***** THE ABOVE OBSERVATIONS ARE NON NWS ARE NOT QUALITY
       CONTROLLED AND MAY MIS-REPORT RAIN FOR SNOW...
$$

  *****  WEATHER ACROSS NORTHERN MINNESOTA  *****

CITY           SKY/WX    TMP DP  RH WIND       PRES   REMARKS
FLAG ISLAND    PTCLDY    45  36  70 E3        30.11R
WARROAD        MOCLDY    46  41  81 E12       30.11R
ROSEAU         CLEAR     43  37  81 E6        30.10R
HALLOCK        CLEAR     46  43  87 E8        30.07S
THF RVR FALLS  CLEAR     50  43  76 NE13      30.06R
HALSTAD          N/A     51  46  84 NE8         N/A
FOSSTON        CLEAR     50  43  76 CALM      30.05R
BAUDETTE       CLEAR     41  37  86 NE5       30.11R
WASKISH        CLEAR     45  41  87 CALM      30.09R
CROOKSTON      CLEAR     52  45  76 NE6       30.05R
$$
  *****  WEATHER ACROSS CENTRAL AND WEST MINNESOTA  *****

CITY           SKY/WX    TMP DP  RH WIND       PRES   REMARKS
BEMIDJI        CLEAR     50  45  81 NE7       30.05R
PARK RAPIDS    CLEAR     58  50  75 NE7       30.02R
WADENA         MOCLDY    59  52  77 NE6       30.01R
DETROIT LAKES  CLEAR     59  52  77 NE8       30.03R
MOORHEAD       CLEAR     57  55  94 NE6       30.01R
FERGUS FALLS   CLEAR     57  48  72 CALM      29.99R
ELBOW LAKE     FAIR      59  55  85 NE3       29.99R
MORRIS MN      CLEAR     61  54  77 NE5       29.98R
STAPLES        CLEAR     57  50  77 CALM      30.01R
WHEATON        CLEAR     61  46  59 NE5       30.00R
$$
  *****  WEATHER ELSEWHERE ACROSS MINNESOTA  *****

CITY           SKY/WX    TMP DP  RH WIND       PRES   REMARKS
DULUTH         CLOUDY    45  40  82 E17G24    30.10R
INTRNTL FALLS  CLEAR     42  37  82 NE3       30.10S
ELY            CLOUDY    45  43  93 SE7       30.11R
CLOQUET        CLOUDY    46  39  76 E10G20    30.09R
BRAINERD       CLEAR     56  51  84 E9        30.02R
HIBBING        CLOUDY    48  42  80 E10       30.10R
ALEXANDRIA     CLEAR     59  53  80 CALM      30.01R
SAINT CLOUD    CLEAR     58  54  86 CALM      29.99R
MINNEAPOLIS    PTCLDY    66  52  60 E5        29.99R
$$

  *****  WEATHER ACROSS SOUTH DAKOTA  *****

CITY           SKY/WX    TMP DP  RH WIND       PRES   REMARKS
SIOUX FALLS    PTCLDY    63  56  78 NE3       29.97R
BROOKINGS      NOT AVBL
WATERTOWN      PTCLDY    59  51  75 NE3       29.99R
HURON          MOCLDY    65  53  65 E7        29.96R
SISSETON         N/A     53  51  93 CALM      29.98R
ABERDEEN       PTCLDY    54  50  86 NE6       29.99R
MITCHELL       PTCLDY    62  54  74 E5        29.95R
PIERRE         CLOUDY    65  45  48 E9        29.96R
MOBRIDGE       MOCLDY    60  49  66 E14       29.94R
RAPID CITY     CLEAR     68  52  56 E13       29.95R
$$

  *****  SOME WEATHER IN NEARBY STATES *****

CITY           SKY/WX    TMP DP  RH WIND       PRES   REMARKS
GLASGOW MT     PTCLDY    67  48  50 E14       29.80S
GREAT FALLS MT CLOUDY    68  52  56 S8        29.78F
CHEYENNE WY    CLEAR     66  43  43 S6        30.10R
SCOTTSBLUFF NE MOCLDY    70  49  47 CALM      29.95R
OMAHA NE       PTCLDY    67  60  78 CALM      29.93R
DES MOINES IA  CLEAR     67  57  70 E5        29.97R
DAVENPORT IA   CLEAR     55  48  77 SE3       30.00R
CHICAGO IL     CLEAR     62  46  55 CALM      30.01R
EAU CLAIRE WI  CLEAR     56  53  90 CALM      30.00R
LA CROSSE WI   CLEAR     59  55  87 SE3       29.99R
$$

  *****  SOME NATIONAL WEATHER *****

CITY           SKY/WX    TMP DP  RH WIND       PRES   REMARKS
LA GUARDIA NY  PTCLDY    66  50  56 S6        29.98S
RALEIGH NC     MOCLDY    69  63  81 E5        29.96S
ATLANTA GA     MOCLDY    73  58  59 N9        29.95R
NEW ORLEANS LA MOCLDY    80  72  76 SW7       29.92R
OKLAHOMA CITY  CLOUDY    80  67  64 S8        29.87R
ALBUQUERQUE NM CLOUDY    67  59  75 CALM      30.10R
SALT LAKE CITY PTCLDY    83  44  25 N7        29.86S
LOS ANGELES CA PTCLDY    78  58  49 W21G30    29.71R
BOISE ID       PTCLDY    86  41  20 NW5       29.70F
SEATTLE WA     CLOUDY    66  53  63 N8        29.73S
$$

*** WEATHER ACROSS MANITOBA...SASKATCHEWAN AND ONTARIO ***
                ***ONTARIO***

CITY           SKY/WX    TMP DP  RH WIND       PRES   REMARKS
GERALDTON      PTCLDY    34  30  86 CALM      30.12R
THUNDER BAY    MOCLDY    45  36  70 E8        30.16R
SIOUX LOOKOUT  PTCLDY    34  30  86 W3        30.14R
TORONTO        CLEAR     57  46  67 W7        29.96S
BIG TROUT LK   CLOUDY    34  19  55 N6        30.16S
PICKLE LAKE    PTCLDY    36  23  60 NE8       30.13R
DRYDEN         CLOUDY    41  34  75 VRB2      30.13S
KENORA         PTCLDY    39  34  81 E3        30.12S
$$
                *** MANITOBA***

CITY           SKY/WX    TMP DP  RH WIND       PRES   REMARKS
BRANDON        PTCLDY    41  39  93 E8        30.08R
DAUPHIN        CLOUDY    43  39  87 SE12      30.07F
ISLAND LAKE    CLEAR     37  28  70 CALM      30.14S
PILOT MOUND      N/A     45  39  81 E6          N/A
THE PAS        PTCLDY    39  36  87 SE8       30.01F
THOMPSON       PTCLDY    32  27  80 SE6       30.06F
WINNIPEG       CLOUDY    45  39  81 E7        30.11S
LYNN LAKE      CLEAR     37  27  65 SE6       29.93F
CHURCHILL      PTCLDY    30  25  80 S8        30.09F WCI  23
GILLAM         PTCLDY    30  25  80 SE6       30.12R WCI  24
$$
                ***SASKATCHEWAN***

CITY           SKY/WX    TMP DP  RH WIND       PRES   REMARKS
ESTEVAN        PTCLDY    52  48  87 E15       29.96S
KINDERSLEY     NOT AVBL
LLOYDMINSTER   MOCLDY    55  48  76 SE16      29.73F
PRINCE ALBERT  MOCLDY    50  45  81 SE7       29.87F
REGINA         PTCLDY    55  48  76 SE17G23   29.90R
YORKTON        CLEAR     43  41  93 SE8       29.98F


USA.gov is the U.S. government's official web portal to all federal, state and local government web resources and services.